Home > Weather > Hobart > Past weeks

Flag for Australia Weather for the Past 2 Weeks in Hobart, Tasmania, Australia

Now
66 °F

Clear.


Feels Like: 66 °F
Forecast: 52 / 79 °F
Wind: 10 mph from Southwest

Location: Hobart Airport

Current Time: Feb 8, 2016 at 10:25:53 PM

Latest Report: Feb 8, 2016 at 9:30 PM


Visibility: 10 mi

Pressure: 30.12 "Hg

Humidity: 49%

Dew point: 46 °F

Location of HobartLocation

Historic Weather in Hobart — Graph

°F

Hobart Temperature Yesterday

Maximum temperature yesterday: 73 °F (at 2:00 PM)
Minimum temperature yesterday: 59 °F (at 5:00 AM)
Average temperature yesterday: 67 °F

High & Low Weather Summary for the Past Weeks

 TemperatureHumidityPressure
High88 °F (Feb 2, 4:00 PM)100% (Jan 29, 8:00 AM)30.24 "Hg (Jan 29, 8:00 AM)
Low52 °F (Feb 4, 4:30 AM)19% (Feb 2, 5:30 PM)29.53 "Hg (Feb 2, 5:30 PM)
Average66 °F70%29.93 "Hg
* Reported Jan 24 9:00 PM — Feb 8 9:00 PM, Hobart, Weather by CustomWeather, © 2016

Note: Actual official high and low records may vary slightly from our data, if they occured in-between our weather recording intervals... More about our weather records

Advertising

Hobart Weather History for the Previous 24 Hours

 ConditionsComfort  
Time TempWeatherWind HumidityBarometerVisibility
9:00 PM
Mon, Feb 8
68 °FClear.16 mph43%30.09 "Hg10 mi
8:30 PM70 °FClear.16 mph40%30.09 "Hg10 mi
8:00 PM73 °FSunny.16 mph33%30.07 "Hg10 mi
7:30 PM75 °FSunny.13 mph31%30.07 "Hg10 mi
7:00 PM75 °FSunny.7 mph34%30.04 "Hg10 mi
6:30 PM73 °FSunny.14 mph47%30.04 "Hg10 mi
6:00 PM73 °FSunny.13 mph47%30.04 "Hg10 mi
5:30 PM75 °FSunny.12 mph47%30.04 "Hg10 mi
5:00 PM73 °FSunny.16 mph50%30.04 "Hg10 mi
4:30 PM73 °FSunny.18 mph53%30.04 "Hg10 mi
4:00 PM75 °FSunny.16 mph47%30.04 "Hg10 mi
3:00 PM73 °FSunny.18 mph50%30.04 "Hg10 mi
2:00 PM79 °FSunny.10 mph34%30.04 "Hg10 mi
1:30 PM75 °FPassing clouds.9 mph39%30.04 "HgN/A
1:00 PM75 °FPassing clouds.8 mph41%30.04 "HgN/A
12:00 PM75 °FPassing clouds.10 mph41%30.04 "HgN/A
11:30 AM73 °FPassing clouds.9 mph47%30.07 "HgN/A
11:00 AM73 °FPassing clouds.8 mph38%30.07 "HgN/A
10:30 AM73 °FPassing clouds.10 mph41%30.07 "HgN/A
10:00 AM73 °FPassing clouds.12 mph41%30.07 "HgN/A
9:30 AM70 °FPassing clouds.8 mph46%30.07 "HgN/A
9:00 AM68 °FPassing clouds.2 mph60%30.07 "HgN/A
8:30 AM68 °FPassing clouds.3 mph69%30.07 "HgN/A
8:00 AM66 °FPassing clouds.8 mph78%30.07 "HgN/A
7:30 AM64 °FPassing clouds.7 mph88%30.07 "HgN/A
7:00 AM63 °FPassing clouds.10 mph88%30.04 "HgN/A
6:30 AM63 °FPassing clouds.9 mph88%30.04 "HgN/A
6:00 AM63 °FPassing clouds.7 mph88%30.04 "HgN/A
5:30 AM63 °FPassing clouds.7 mph94%30.04 "HgN/A
5:00 AM64 °FPassing clouds.7 mph83%30.04 "HgN/A
4:30 AM64 °FPassing clouds.No wind83%30.04 "HgN/A
4:00 AM64 °FPassing clouds.No wind83%30.04 "HgN/A
3:30 AM64 °FPassing clouds.No wind83%30.04 "HgN/A
3:00 AM64 °FPassing clouds.No wind83%30.04 "HgN/A
2:30 AM64 °FPassing clouds.No wind83%30.04 "HgN/A
2:00 AM66 °FPassing clouds.3 mph78%30.04 "HgN/A
1:30 AM66 °FPassing clouds.6 mph78%30.04 "HgN/A
1:00 AM66 °FPassing clouds.6 mph78%30.07 "HgN/A
12:30 AM66 °FPassing clouds.7 mph83%30.07 "HgN/A
12:00 AM66 °FPassing clouds.8 mph83%30.07 "HgN/A
11:30 PM
Sun, Feb 7
66 °FPassing clouds.8 mph83%30.07 "HgN/A
11:00 PM66 °FPassing clouds.8 mph83%30.07 "HgN/A
10:30 PM68 °FPassing clouds.9 mph78%30.07 "HgN/A
10:00 PM68 °FPassing clouds.9 mph78%30.07 "HgN/A
Weather by CustomWeather, © 2016

See weather overviewHow to use our weather pages